Content
SEND FEEDBACK

Daily
Averages
Monthly
Summary
United States of America

LOGAN, UTAH


Home > North America > United States > Utah
Elevation: 4454 feet     Latitude: 41 47N     Longitude: 111 50W

WEATHER
 
SELECT A DAY
Number of Records: 172,369;   Date Range: 1/5/95 - 12/26/14
 
SHARE

PRINT THIS DATA

[ ← Previous Day ]
WEATHER ALMANAC - JANUARY 23, 2013
[ Next Day → ]
[ °C ]   °F
Weather ElementAverageHighLow
Temperature-2.2 °F10 °F (3:51 pm)-9.9 °F (5:51 am)
Dewpoint-6.5 °F3.9 °F (3:51 pm)-15 °F (5:51 am)
Humidity82 %87 % (7:51 am)76 % (3:51 pm)
Barometer30.50 in30.67 in (8:51 am)30.29 in (5:44 pm)
Wind Speed2.5 mph8.1 mph (2:51 pm)
Weather ElementAverage
Visibility1.9 mi
Wind DirectionESE (106.8 °)

Weather ElementTotal
Precipitation---
Heating Degree Days65 (Base 65)
Averaged from 38 records on January 23, 2013
WEATHER CONDITIONS BREAKOUT
WIND DIRECTION BREAKOUT
WEATHER BY HOUR - JANUARY 23, 2013
[ °C ]   °F
Local TimeTemperatureDewpointHumidityBarometerVisibilityWind DirectionWind SpeedGust SpeedPrecipitationEventsConditions
12:51 AM-9.0 °F-14.1 °F79 %30.66 inNorth (360°)3.5 mphOvercast
1:11 AM-7.6 °F-11.2 °F84 %30.37 inNW (320°)4.6 mphMostly Cloudy
1:27 AM-5.8 °F-9.4 °F84 %30.37 inNE (50°)3.5 mphScattered Clouds
1:51 AM-5.1 °F-9.0 °F83 %30.64 inWSW (240°)5.8 mphClear
2:05 AM-5.8 °F-9.4 °F84 %30.36 inSW (230°)6.9 mphScattered Clouds
2:11 AM-7.6 °F-11.2 °F84 %30.36 inSW (230°)5.8 mphMostly Cloudy
2:24 AM-9.4 °F-14.8 °F77 %30.36 inWSW (240°)6.9 mphOvercast
2:51 AM-8.0 °F-13.0 °F79 %30.64 inCalmOvercast
3:31 AM-7.6 °F-11.2 °F84 %30.36 inENE (70°)3.5 mphOvercast
3:51 AM-6.0 °F-11.0 °F79 %30.63 inCalmMostly Cloudy
4:46 AM-7.6 °F-11.2 °F84 %30.36 inWest (270°)5.8 mphOvercast
4:51 AM-9.0 °F-14.1 °F79 %30.64 inCalmOvercast
5:18 AM-9.4 °F-14.8 °F77 %30.35 inWest (280°)3.5 mphScattered Clouds
5:51 AM-9.9 °F-15.0 °F78 %30.65 inNNE (20°)4.6 mphClear
5:56 AM-9.4 °F-14.8 °F77 %30.35 inNE (50°)4.6 mphScattered Clouds
6:35 AM-7.6 °F-11.2 °F84 %30.35 inCalmMostly Cloudy
6:51 AM-8.0 °F-13.0 °F79 %30.65 inCalmOvercast
7:51 AM-7.1 °F-9.9 °F87 %30.64 inSW (230°)3.5 mphOvercast
8:51 AM-4.0 °F-9.0 °F79 %30.67 inCalmOvercast
8:57 AM-5.8 °F-9.4 °F84 %30.37 inCalmOvercast
9:26 AM-2.2 °F-7.6 °F78 %30.36 inCalmScattered Clouds
9:51 AM-2.0 °F-5.1 °F87 %30.66 inCalmClear
10:05 AM-2.2 °F-5.8 °F85 %30.37 in1.5 miCalmClear
10:17 AM-2.2 °F-5.8 °F85 %30.37 in1.5 miCalmPartly Cloudy
10:51 AM1.0 °F-2.0 °F87 %30.66 in1.5 miCalmClear
11:51 AM3.0 °F-0.9 °F84 %30.64 in1.5 miNNW (330°)3.5 mphClear
12:51 PM5.0 °F1.0 °F84 %30.61 in1.5 miWNW (290°)4.6 mphClear
2:51 PM8.1 °F3.0 °F80 %30.55 in1.5 miWest (280°)8.1 mphHaze
3:51 PM10.0 °F3.9 °F76 %30.54 in1.8 miCalmHaze
4:51 PM8.1 °F3.0 °F80 %30.56 in1.5 miNNE (30°)4.6 mphHaze
5:44 PM8.6 °F3.2 °F79 %30.29 in2.5 miCalmHaze
5:51 PM8.1 °F3.0 °F80 %30.56 in2.5 miCalmHaze
6:51 PM6.1 °F1.9 °F83 %30.56 in2.5 miWest (260°)3.5 mphClear
7:51 PM3.9 °F0.0 °F84 %30.54 in2.5 miCalmClear
8:51 PM3.0 °F-0.9 °F84 %30.55 in2.0 miENE (60°)3.5 mphClear
9:51 PM5.0 °F1.0 °F84 %30.52 in2.0 miSW (220°)4.6 mphClear
10:51 PM1.9 °F-2.0 °F83 %30.52 in2.0 miCalmScattered Clouds
11:51 PM3.0 °F0.0 °F87 %30.52 in2.0 miCalmPartly Cloudy
Hourly data recorded from KLGU, located miles away from Logan, Utah







STORIES FROM OUR PARTNERS